• în România
  • Lista ţărilor
  • Pe 7 zile
  • Temperatura apei
  • Hartă satelitară
  • Meteo pe hartă
  • Widget-uri
  • user-avatar
    Intrare

    Meteo pe oră la Pyatiusovo

    Astăzi, 17 Iulie, Marţi

    Timp Temperatura Precipitaţii Vânt Presiune Umiditate
    00:00 +19°C° 0 mm 3 m/s 740 mmHg 93%
    01:00 +19°C° 0 mm 3 m/s 740 mmHg 93%
    02:00 +19°C° 0 mm 3 m/s 740 mmHg 94%
    03:00 +19°C° 0 mm 3 m/s 740 mmHg 94%
    04:00 +19°C° 0 mm 3 m/s 740 mmHg 94%
    05:00 +19°C° 0 mm 3 m/s 740 mmHg 94%
    06:00 +20°C° 0 mm 4 m/s 740 mmHg 87%
    07:00 +22°C° 0 mm 4 m/s 740 mmHg 81%
    08:00 +25°C° 0 mm 4 m/s 740 mmHg 74%
    09:00 +26°C° 0 mm 5 m/s 740 mmHg 68%
    10:00 +27°C° 0 mm 5 m/s 740 mmHg 62%
    11:00 +29°C° 0 mm 5 m/s 739 mmHg 56%
    12:00 +29°C° 0 mm 5 m/s 739 mmHg 55%
    13:00 +29°C° 0 mm 5 m/s 739 mmHg 54%
    14:00 +30°C° 0 mm 5 m/s 739 mmHg 52%
    15:00 +29°C° 0 mm 5 m/s 738 mmHg 54%
    16:00 +29°C° 0 mm 5 m/s 738 mmHg 55%
    17:00 +29°C° 0 mm 5 m/s 738 mmHg 56%
    18:00 +27°C° 0 mm 4 m/s 738 mmHg 63%
    19:00 +25°C° 0 mm 3 m/s 738 mmHg 70%
    20:00 +24°C° 0 mm 3 m/s 738 mmHg 76%
    21:00 +22°C° 0 mm 3 m/s 738 mmHg 78%
    22:00 +21°C° 0 mm 3 m/s 738 mmHg 79%
    23:00 +20°C° 0 mm 3 m/s 738 mmHg 81%

    Mâine, 18 Iulie, Miercuri

    Timp Temperatura Precipitaţii Vânt Presiune Umiditate
    00:00 +20°C° 0 mm 3 m/s 738 mmHg 81%
    01:00 +19°C° 0 mm 3 m/s 738 mmHg 82%
    02:00 +19°C° 0 mm 3 m/s 738 mmHg 83%
    03:00 +19°C° 0 mm 3 m/s 738 mmHg 83%
    04:00 +19°C° 0 mm 3 m/s 738 mmHg 83%
    05:00 +19°C° 0 mm 3 m/s 738 mmHg 83%
    06:00 +20°C° 0 mm 3 m/s 738 mmHg 82%
    07:00 +21°C° 0 mm 4 m/s 738 mmHg 80%
    08:00 +22°C° 0 mm 4 m/s 738 mmHg 78%
    09:00 +23°C° 0 mm 4 m/s 738 mmHg 76%
    10:00 +23°C° 0 mm 4 m/s 738 mmHg 74%
    11:00 +25°C° 0 mm 4 m/s 738 mmHg 72%
    12:00 +25°C° 1 mm 4 m/s 737 mmHg 72%
    13:00 +26°C° 1 mm 4 m/s 737 mmHg 73%
    14:00 +26°C° 1 mm 4 m/s 737 mmHg 74%
    15:00 +25°C° 1,5 mm 4 m/s 737 mmHg 78%
    16:00 +23°C° 1,5 mm 4 m/s 737 mmHg 83%
    17:00 +24°C° 1,5 mm 3 m/s 737 mmHg 87%
    18:00 +22°C° 0,9 mm 3 m/s 737 mmHg 88%
    19:00 +21°C° 0,9 mm 3 m/s 737 mmHg 90%
    20:00 +20°C° 0,9 mm 3 m/s 737 mmHg 91%
    21:00 +20°C° 1,1 mm 3 m/s 737 mmHg 93%
    22:00 +19°C° 1,1 mm 3 m/s 737 mmHg 94%
    23:00 +19°C° 1,1 mm 3 m/s 737 mmHg 95%

    Poimâine, 19 Iulie, Joi

    Timp Temperatura Precipitaţii Vânt Presiune Umiditate
    00:00 +18°C° 0 mm 3 m/s 737 mmHg 96%
    01:00 +18°C° 0 mm 3 m/s 737 mmHg 96%
    02:00 +18°C° 0 mm 3 m/s 737 mmHg 97%
    03:00 +18°C° 0 mm 3 m/s 737 mmHg 97%
    04:00 +18°C° 0 mm 3 m/s 737 mmHg 96%
    05:00 +18°C° 0 mm 3 m/s 737 mmHg 96%
    06:00 +19°C° 0,1 mm 3 m/s 737 mmHg 94%
    07:00 +19°C° 0,1 mm 3 m/s 737 mmHg 93%
    08:00 +20°C° 0,1 mm 3 m/s 737 mmHg 92%
    09:00 +20°C° 0,4 mm 3 m/s 737 mmHg 91%
    10:00 +20°C° 0,4 mm 3 m/s 737 mmHg 91%
    11:00 +21°C° 0,4 mm 3 m/s 737 mmHg 91%
    12:00 +20°C° 0,6 mm 3 m/s 737 mmHg 92%
    13:00 +20°C° 0,6 mm 3 m/s 737 mmHg 93%
    14:00 +20°C° 0,6 mm 3 m/s 737 mmHg 94%
    15:00 +20°C° 0,3 mm 3 m/s 737 mmHg 93%
    16:00 +21°C° 0,3 mm 3 m/s 737 mmHg 92%
    17:00 +21°C° 0,3 mm 3 m/s 737 mmHg 90%
    18:00 +20°C° 0,3 mm 3 m/s 736 mmHg 92%
    19:00 +20°C° 0,3 mm 3 m/s 736 mmHg 93%
    20:00 +20°C° 0,3 mm 3 m/s 736 mmHg 94%
    21:00 +19°C° 0,2 mm 2 m/s 736 mmHg 95%
    22:00 +19°C° 0,2 mm 2 m/s 736 mmHg 96%
    23:00 +18°C° 0,2 mm 2 m/s 736 mmHg 98%

    20 Iulie, Vineri

    Timp Temperatura Precipitaţii Vânt Presiune Umiditate
    00:00 +18°C° 0,1 mm 2 m/s 736 mmHg 98%
    01:00 +18°C° 0,1 mm 2 m/s 735 mmHg 98%
    02:00 +18°C° 0,1 mm 2 m/s 735 mmHg 98%
    03:00 +18°C° 0,7 mm 2 m/s 735 mmHg 98%
    04:00 +19°C° 0,7 mm 2 m/s 735 mmHg 98%
    05:00 +19°C° 0,7 mm 2 m/s 735 mmHg 98%
    06:00 +19°C° 1,1 mm 2 m/s 735 mmHg 97%
    07:00 +20°C° 1,1 mm 2 m/s 735 mmHg 97%
    08:00 +20°C° 1,1 mm 3 m/s 735 mmHg 96%
    09:00 +21°C° 0,7 mm 3 m/s 735 mmHg 94%
    10:00 +21°C° 0,7 mm 3 m/s 735 mmHg 93%
    11:00 +22°C° 0,7 mm 3 m/s 735 mmHg 91%
    12:00 +24°C° 1 mm 3 m/s 735 mmHg 90%
    13:00 +24°C° 1 mm 3 m/s 735 mmHg 88%
    14:00 +25°C° 1 mm 3 m/s 735 mmHg 87%
    15:00 +25°C° 1 mm 3 m/s 735 mmHg 87%
    16:00 +25°C° 1 mm 2 m/s 735 mmHg 88%
    17:00 +25°C° 1 mm 2 m/s 735 mmHg 88%
    18:00 +24°C° 0,8 mm 2 m/s 735 mmHg 91%
    19:00 +23°C° 0,8 mm 2 m/s 735 mmHg 93%
    20:00 +21°C° 0,8 mm 2 m/s 735 mmHg 96%
    21:00 +21°C° 0,3 mm 2 m/s 735 mmHg 97%
    22:00 +21°C° 0,3 mm 1 m/s 734 mmHg 97%
    23:00 +21°C° 0,3 mm 1 m/s 734 mmHg 98%

    21 Iulie, Sâmbătă

    Timp Temperatura Precipitaţii Vânt Presiune Umiditate
    00:00 +20°C° 0 mm 1 m/s 734 mmHg 98%
    01:00 +20°C° 0 mm 1 m/s 735 mmHg 98%
    02:00 +20°C° 0 mm 1 m/s 735 mmHg 98%
    03:00 +20°C° 0,4 mm 1 m/s 735 mmHg 98%
    04:00 +20°C° 0,4 mm 1 m/s 735 mmHg 98%
    05:00 +20°C° 0,4 mm 1 m/s 735 mmHg 99%
    06:00 +21°C° 0 mm 1 m/s 735 mmHg 96%
    07:00 +22°C° 0 mm 1 m/s 735 mmHg 93%
    08:00 +23°C° 0 mm 1 m/s 735 mmHg 90%
    09:00 +24°C° 0,6 mm 2 m/s 735 mmHg 86%
    10:00 +25°C° 0,6 mm 2 m/s 735 mmHg 81%
    11:00 +26°C° 0,6 mm 2 m/s 736 mmHg 76%
    12:00 +27°C° 1 mm 2 m/s 735 mmHg 76%
    13:00 +27°C° 1 mm 2 m/s 735 mmHg 75%
    14:00 +27°C° 1 mm 2 m/s 735 mmHg 74%
    15:00 +27°C° 0,7 mm 1 m/s 735 mmHg 75%
    16:00 +27°C° 0,7 mm 1 m/s 735 mmHg 75%
    17:00 +27°C° 0,7 mm 1 m/s 735 mmHg 75%
    18:00 +25°C° 0,9 mm 1 m/s 735 mmHg 81%
    19:00 +24°C° 0,9 mm 1 m/s 735 mmHg 87%
    20:00 +22°C° 0,9 mm 1 m/s 735 mmHg 94%
    21:00 +22°C° 0 mm 1 m/s 735 mmHg 95%
    22:00 +21°C° 0 mm 1 m/s 735 mmHg 95%
    23:00 +20°C° 0 mm 1 m/s 735 mmHg 96%

    22 Iulie, Duminică

    Timp Temperatura Precipitaţii Vânt Presiune Umiditate
    00:00 +20°C° 0 mm 1 m/s 735 mmHg 97%
    01:00 +20°C° 0 mm 1 m/s 735 mmHg 97%
    02:00 +19°C° 0 mm 1 m/s 735 mmHg 98%
    03:00 +19°C° 0 mm 1 m/s 735 mmHg 98%
    04:00 +19°C° 0 mm 1 m/s 735 mmHg 98%
    05:00 +19°C° 0 mm 2 m/s 735 mmHg 99%
    06:00 +19°C° 0 mm 2 m/s 736 mmHg 97%
    07:00 +20°C° 0 mm 2 m/s 736 mmHg 96%
    08:00 +20°C° 0 mm 2 m/s 736 mmHg 94%
    09:00 +21°C° 0 mm 2 m/s 737 mmHg 93%
    10:00 +21°C° 0 mm 2 m/s 737 mmHg 91%
    11:00 +23°C° 0 mm 2 m/s 737 mmHg 89%
    12:00 +23°C° 0,1 mm 2 m/s 737 mmHg 87%
    13:00 +24°C° 0,1 mm 2 m/s 737 mmHg 84%
    14:00 +24°C° 0,1 mm 3 m/s 737 mmHg 81%
    15:00 +25°C° 0,2 mm 3 m/s 737 mmHg 79%
    16:00 +25°C° 0,2 mm 3 m/s 737 mmHg 78%
    17:00 +25°C° 0,2 mm 3 m/s 737 mmHg 77%
    18:00 +24°C° 0,1 mm 2 m/s 737 mmHg 82%
    19:00 +23°C° 0,1 mm 2 m/s 737 mmHg 87%
    20:00 +22°C° 0,1 mm 1 m/s 737 mmHg 92%
    21:00 +20°C° 0 mm 2 m/s 737 mmHg 93%
    22:00 +19°C° 0 mm 2 m/s 737 mmHg 94%
    23:00 +19°C° 0 mm 2 m/s 738 mmHg 95%
    Arată mai mult